South Haven, MI

9:47 AM EDT on April 20, 2018 (GMT -0400)
South Haven

Weather History for KLWA - January, 2013

Change the Weather History Date:

Tuesday, January 1, 2013

  Actual Average (KBEH) Record (KBEH)
Temperature  
Mean Temperature 26 °F -  
Max Temperature 28 °F 32 °F 57 °F (2011)
Min Temperature 23 °F 18 °F -10 °F (1964)
Degree Days  
Heating Degree Days 40    
Moisture  
Dew Point 16 °F    
Average Humidity 69    
Maximum Humidity 78    
Minimum Humidity 64    
Precipitation  
Precipitation 0.00 in - - ()
Sea Level Pressure  
Sea Level Pressure 30.11 in    
Wind  
Wind Speed 5 mph (North)    
Max Wind Speed 12 mph    
Max Gust Speed 17 mph    
Visibility 9 miles    
Events Snow    
Averages and records for this station are not official NWS values.
T = Trace of Precipitation, MM = Missing Value Source: NWS Daily Summary

Daily Weather History Graph

Daily Weather History Graph

Search for Another Location

Airport or City:

Astronomy

Jan. 01, 2013 Rise Set
Actual Time 8:14 AM EST 5:23 PM EST
Civil Twilight 7:42 AM EST 5:55 PM EST
Nautical Twilight 7:07 AM EST 6:30 PM EST
Astronomical Twilight 6:33 AM EST 7:04 PM EST
Moon 9:59 PM EST (1/1) 10:21 AM EST (1/1)
Length of Visible Light 10h 12m
Length of Day
9h 09m
Waning Gibbous, 83% of the Moon is Illuminated
Jan 1
Waning Gibbous
Jan 4
Last Quarter
Jan 11
New
Jan 18
First Quarter
Jan 26
Full

Hourly Weather History & Observations

Time (EST) Temp. Windchill Dew Point Humidity Pressure Visibility Wind Dir Wind Speed Gust Speed Precip Events Conditions
12:14 AM 28.8 °F 21.7 °F 19.4 °F 68% 30.06 in 10.0 mi NW 6.9 mph - N/A   Overcast
12:32 AM 28.9 °F 21.9 °F 19.6 °F 68% 30.05 in 10.0 mi NW 6.9 mph - N/A   Overcast
12:53 AM 28.8 °F 23.7 °F 18.5 °F 66% 30.06 in 10.0 mi NW 4.6 mph - N/A   Overcast
1:15 AM 28.9 °F 23.9 °F 18.1 °F 64% 30.05 in 10.0 mi NW 4.6 mph - N/A   Overcast
1:33 AM 28.9 °F 23.9 °F 18.3 °F 65% 30.05 in 10.0 mi NNW 4.6 mph - N/A   Overcast
1:53 AM 27.5 °F 20.2 °F 19.6 °F 72% 30.05 in 10.0 mi NE 6.9 mph - N/A   Overcast
2:10 AM 27.5 °F 21.1 °F 18.9 °F 70% 30.05 in 10.0 mi NE 5.8 mph - N/A   Overcast
2:35 AM 27.1 °F - 18.7 °F 70% 30.05 in 10.0 mi Calm Calm - N/A   Overcast
2:49 AM 27.1 °F 21.8 °F 18.5 °F 70% 30.06 in 10.0 mi ENE 4.6 mph - N/A   Overcast
3:13 AM 27.0 °F 23.0 °F 18.5 °F 70% 30.07 in 10.0 mi East 3.5 mph - N/A   Overcast
3:33 AM 26.6 °F - 18.1 °F 70% 30.07 in 10.0 mi Calm Calm - N/A   Overcast
3:55 AM 26.6 °F 21.2 °F 17.8 °F 69% 30.07 in 10.0 mi ENE 4.6 mph - N/A   Overcast
4:15 AM 26.6 °F 20.0 °F 16.7 °F 66% 30.07 in 10.0 mi NE 5.8 mph - N/A   Overcast
4:34 AM 26.4 °F 20.9 °F 16.5 °F 66% 30.07 in 10.0 mi NE 4.6 mph - N/A   Overcast
4:54 AM 26.4 °F 22.4 °F 16.2 °F 65% 30.08 in 10.0 mi ENE 3.5 mph - N/A   Overcast
5:13 AM 26.4 °F 18.9 °F 16.2 °F 65% 30.07 in 10.0 mi NE 6.9 mph - N/A   Overcast
5:34 AM 26.2 °F 19.6 °F 16.3 °F 66% 30.06 in 10.0 mi NE 5.8 mph - N/A   Overcast
6:15 AM 25.7 °F 17.1 °F 15.8 °F 66% 30.08 in 10.0 mi NE 8.1 mph - N/A   Overcast
6:34 AM 25.7 °F 17.1 °F 16.3 °F 68% 30.09 in 10.0 mi NE 8.1 mph - N/A   Overcast
7:14 AM 25.2 °F 18.3 °F 15.8 °F 68% 30.11 in 10.0 mi NE 5.8 mph - N/A   Overcast
7:34 AM 24.8 °F 16.9 °F 15.8 °F 69% 30.11 in 10.0 mi NE 6.9 mph - N/A   Overcast
8:12 AM 23.9 °F 15.8 °F 15.4 °F 70% 30.12 in 10.0 mi NNE 6.9 mph - N/A   Overcast
8:33 AM 23.9 °F 18.0 °F 15.4 °F 70% 30.14 in 10.0 mi ENE 4.6 mph - N/A   Overcast
8:55 AM 23.9 °F 19.5 °F 14.9 °F 69% 30.15 in 10.0 mi ENE 3.5 mph - N/A Snow Light Snow
9:10 AM 23.7 °F 17.8 °F 14.5 °F 68% 30.14 in 10.0 mi ENE 4.6 mph - N/A   Overcast
9:35 AM 23.5 °F 19.1 °F 14.4 °F 68% 30.15 in 10.0 mi East 3.5 mph - N/A   Overcast
9:49 AM 23.7 °F 19.3 °F 14.7 °F 69% 30.15 in 7.0 mi East 3.5 mph - N/A Snow Light Snow
10:13 AM 23.9 °F 18.0 °F 15.4 °F 70% 30.15 in 7.0 mi ENE 4.6 mph - N/A Snow Light Snow
10:35 AM 24.3 °F 16.3 °F 16.2 °F 71% 30.14 in 10.0 mi ESE 6.9 mph - N/A Snow Light Snow
10:55 AM 24.1 °F 16.0 °F 15.4 °F 70% 30.14 in 10.0 mi NE 6.9 mph - N/A   Overcast
11:15 AM 24.1 °F 16.0 °F 15.6 °F 70% 30.13 in 10.0 mi NE 6.9 mph - N/A Snow Light Snow
11:35 AM 24.4 °F 20.1 °F 15.8 °F 70% 30.13 in 7.0 mi ENE 3.5 mph - N/A Snow Light Snow
11:55 AM 25.3 °F - 16.3 °F 69% 30.13 in 10.0 mi Calm Calm - N/A   Overcast
12:14 PM 24.8 °F 20.5 °F 16.0 °F 69% 30.12 in 10.0 mi NNE 3.5 mph - N/A Snow Light Snow
12:35 PM 24.8 °F - 16.7 °F 71% 30.12 in 7.0 mi Calm Calm - N/A Snow Light Snow
12:55 PM 24.6 °F - 16.5 °F 71% 30.13 in 10.0 mi Calm Calm - N/A   Overcast
1:14 PM 24.6 °F - 16.7 °F 72% 30.12 in 5.0 mi Calm Calm - N/A Snow Light Snow
1:34 PM 24.8 °F - 17.6 °F 74% 30.11 in 4.0 mi Calm Calm - N/A Snow Light Snow
1:55 PM 25.3 °F - 18.0 °F 74% 30.11 in 5.0 mi Calm Calm - N/A Snow Light Snow
2:14 PM 25.2 °F - 18.1 °F 75% 30.12 in 4.0 mi Calm Calm - N/A Snow Light Snow
2:35 PM 24.8 °F - 18.7 °F 78% 30.11 in 3.0 mi Calm Calm - N/A Snow Light Snow
2:54 PM 25.2 °F - 19.0 °F 78% 30.11 in 5.0 mi Calm Calm - N/A Snow Light Snow
3:15 PM 25.3 °F - 19.2 °F 78% 30.10 in 7.0 mi Calm Calm - N/A Snow Light Snow
3:33 PM 26.6 °F 18.2 °F 18.0 °F 70% 30.11 in 10.0 mi WNW 8.1 mph - N/A Snow Light Snow
3:52 PM 26.6 °F 16.2 °F 17.1 °F 67% 30.11 in 10.0 mi WNW 11.5 mph 17.3 mph N/A   Overcast
4:13 PM 26.2 °F 15.8 °F 16.5 °F 67% 30.11 in 10.0 mi WNW 11.5 mph - N/A   Overcast
4:35 PM 25.7 °F 18.0 °F 16.7 °F 69% 30.11 in 10.0 mi WNW 6.9 mph - N/A   Overcast
4:55 PM 25.5 °F 15.5 °F 16.3 °F 68% 30.11 in 10.0 mi WNW 10.4 mph - N/A   Overcast
5:15 PM 25.2 °F 15.1 °F 15.8 °F 68% 30.11 in 10.0 mi WNW 10.4 mph 16.1 mph N/A   Overcast
5:35 PM 24.6 °F 15.1 °F 15.3 °F 68% 30.11 in 10.0 mi WNW 9.2 mph - N/A   Overcast
5:54 PM 23.9 °F 14.2 °F 14.9 °F 69% 30.12 in 10.0 mi WNW 9.2 mph - N/A   Overcast
6:15 PM 23.7 °F 15.6 °F 15.1 °F 70% 30.12 in 10.0 mi WNW 6.9 mph - N/A   Mostly Cloudy
6:35 PM 23.7 °F 14.7 °F 15.1 °F 70% 30.11 in 10.0 mi WNW 8.1 mph - N/A   Mostly Cloudy
6:54 PM 23.5 °F 14.5 °F 15.4 °F 71% 30.11 in 10.0 mi NW 8.1 mph 17.3 mph N/A   Mostly Cloudy
7:15 PM 23.4 °F 15.2 °F 14.5 °F 69% 30.12 in 10.0 mi WNW 6.9 mph - N/A   Mostly Cloudy
7:35 PM 23.0 °F 15.8 °F 14.7 °F 71% 30.12 in 10.0 mi WNW 5.8 mph - N/A   Mostly Cloudy
7:54 PM 23.2 °F 15.0 °F 14.4 °F 69% 30.12 in 10.0 mi WNW 6.9 mph - N/A   Mostly Cloudy
8:14 PM 23.5 °F 15.4 °F 14.5 °F 69% 30.13 in 10.0 mi WNW 6.9 mph - N/A   Mostly Cloudy
8:34 PM 23.7 °F 14.0 °F 14.2 °F 67% 30.13 in 10.0 mi WNW 9.2 mph 17.3 mph N/A   Mostly Cloudy
8:53 PM 23.7 °F 14.7 °F 14.5 °F 68% 30.13 in 10.0 mi WNW 8.1 mph - N/A   Mostly Cloudy
9:14 PM 23.9 °F 15.0 °F 14.4 °F 67% 30.12 in 10.0 mi WNW 8.1 mph - N/A   Overcast
9:35 PM 23.9 °F 15.8 °F 14.0 °F 66% 30.12 in 10.0 mi West 6.9 mph - N/A   Overcast
9:54 PM 23.9 °F 15.8 °F 14.2 °F 66% 30.12 in 10.0 mi WNW 6.9 mph - N/A   Overcast
10:13 PM 24.1 °F 16.0 °F 14.9 °F 68% 30.11 in 10.0 mi WNW 6.9 mph - N/A   Overcast
10:32 PM 23.9 °F 14.2 °F 14.5 °F 67% 30.11 in 10.0 mi WNW 9.2 mph - N/A   Overcast
10:55 PM 23.9 °F 14.2 °F 15.1 °F 69% 30.11 in 10.0 mi WNW 9.2 mph - N/A   Overcast
11:12 PM 23.9 °F 15.0 °F 14.9 °F 69% 30.11 in 10.0 mi WNW 8.1 mph - N/A   Overcast
11:32 PM 23.7 °F 14.0 °F 14.4 °F 67% 30.11 in 10.0 mi WNW 9.2 mph - N/A   Mostly Cloudy
11:54 PM 23.7 °F 14.0 °F 14.2 °F 67% 30.11 in 10.0 mi WNW 9.2 mph - N/A   Mostly Cloudy